Regional Weather Roundup
Issued by NWS Charleston, SC

Current Version | Previous Version | Graphics & Text | Print | Product List | Glossary On
Versions: 1 2 3 4 5 6 7 8 9 10 11 12 13 14 15 16 17 18 19 20 21 22 23 24 25 26 27 28 29 30 31 32 33 34 35 36 37 38 39 40 41 42 43 44 45 46 47 48 49 50
000
ASUS42 KCHS 231410
RWRCHS

REGIONAL WEATHER ROUNDUP
NATIONAL WEATHER SERVICE CHARLESTON SC
1000 AM EDT WED JUL 23 2014

NOTE: "FAIR" INDICATES FEW OR NO CLOUDS BELOW 12,000 FEET WITH NO
SIGNIFICANT WEATHER AND/OR OBSTRUCTIONS TO VISIBILITY.

NOT ALL STATIONS ARE QUALITY CONTROLLED BY THE NATIONAL
WEATHER SERVICE. USE DATA WITH CAUTION...ESPECIALLY
DEWPOINT OBSERVATIONS.

SCZ027-030-031-034>040-042>050-231500-
...SOUTH CAROLINA...

CITY           SKY/WX    TMP DP  RH WIND       PRES   REMARKS
N CHARLESTON   MOSUNNY   86  74  67 N5        30.08R HX  94
WATERFRONT PRK   N/A     82 N/A N/A N3          N/A
FORT JOHNSON   NOT AVBL
MOUNT PLEASANT FAIR      84  75  74 N6        30.08R HX  92
JOHNS ISLAND   MOSUNNY   84  61  45 CALM      30.08S
PINOPOLIS        N/A     86  77  74 MISG      30.02R HX  97
MONCKS CORNER    N/A     82  77  83 CALM      30.08S HX  91
SUMMERVILLE    FAIR      82  77  83 CALM      30.09S HX  91
BEAUFORT MCAS  MOSUNNY   84  74  71 CALM      30.08R HX  91
BEAUFORT ARPT  FAIR      82  77  83 NW6       30.08R HX  91
HILTON HEAD IS MOSUNNY   82  73  74 N6        30.09R
GEORGETOWN     NOT AVBL
WALTERBORO     MOSUNNY   84  77  79 W6        30.09R HX  94
ORANGEBURG     MOSUNNY   81  73  76 NW7       30.09S
BARNWELL       FAIR      84  75  74 NW7       30.10S HX  92
AIKEN          FAIR      81  75  83 W5        30.14S
MANNING        PTSUNNY   81 N/A N/A MISG      30.09R
KINGSTREE      NOT AVBL
COLUMBIA       PTSUNNY   82  72  71 W8        30.09S
SUMTER         MOSUNNY   82  75  80 W9        30.07S
FLORENCE       PTSUNNY   81  74  79 NW6       30.08F
MYRTLE BEACH   SUNNY     82  72  69 NW8       30.08R
N MYRTLE BEACH MOSUNNY   83  73  72 N3        30.08R

$$

GAZ063-065-086>088-099>101-113>116-118-119-134-136>141-150-231500-
...GEORGIA...

CITY           SKY/WX    TMP DP  RH WIND       PRES   REMARKS
SAVANNAH ARPT  MOSUNNY   84  74  71 W5        30.08S HX  91
HUNTER AAF     MOSUNNY   84  75  73 VRB2      30.07R HX  92
FORT STEWART   SUNNY     83  74  74 SW3       30.07F HX  91
STATESBORO     NOT AVBL
SYLVANIA       SUNNY     83  78  84 W5        30.10S HX  92
CLAXTON        FAIR      82  81  94 CALM      30.09S HX  95
THOMSON        PTSUNNY   79  78  96 N3        30.16R
AUGUSTA-BUSH   SUNNY     83  72  69 NW8       30.09S
AUGUSTA-DANIEL MOSUNNY   82  72  71 VRB7      30.11S
SWAINSBORO     PTSUNNY   82  82 100 W5        30.11S HX  97
VIDALIA          N/A     81  77  89 SW5       30.10S
ALMA           MOSUNNY   81  74  79 VRB3      30.10R
WAYCROSS       SUNNY     84  78  80 CALM      30.09S HX  95
JESUP          NOT AVBL
BRUNSWICK      MOSUNNY   84  73  70 CALM      30.09S HX  91
SAINT SIMONS   PTSUNNY   83  74  74 W7        30.08S

$$

SCZ027-028-034-036>038-045-046-048>050-GAZ119-141-231500-
...LAKE AND SUPPLEMENTAL COASTAL OBSERVATIONS...

STATION/POSITION TIME  TEMP    WIND        PRES    WAVE   SWELL
                       AIR SEA DIR/SP/G            HT/PER HT/PER/DIR
                 (UTC) (F)     (DEG/KT/KT) (MB)    (FT/S) (FT/S/D)
UPR LAKE MARION  NOT AVBL
WINYAH BAY       1300   79     320/  5     1018.0S
LAKE MURRAY      1300   77     270/  6/  9 1018.6R
ACE BASIN NERRS  1300   79        CALM     1019.0S
FORT PULASKI     1400   81     290/  1/  2 1018.9R
SAPELO ISLAND    1300   83     300/  2     1019.0S

$$

ANZ835-935-AMZ111-154-330-350-352-354-374-450-454-472-231500-
...C-MAN AND BUOY OBSERVATIONS...

STATION/POSITION TIME  TEMP    WIND        PRES    WAVE   SWELL
                       AIR SEA DIR/SP/G            HT/PER HT/PER/DIR
                 (UTC) (F)     (DEG/KT/KT) (MB)    (FT/S) (FT/S/D)
FOLLY BEACH CMAN 1300   82     360/  2/  3 1018.7F
BUOY 41004       1400   81 82  190/  2/  4 1018.1R   3/ 6   3/ 6
BUOY 41008       1400   83 84  320/  4/  6 1018.6R   2/ 8   2/120/ 8
5E ST. MARYS GA  1400      84                N/A     2/ 7
FRYING PAN BUOY  NOT AVBL
BUOY 41025       1300          VRB 14/ 16  1017.8S   3/10   2/130/10
CAPE LOOKOUT NC  1300   81     260/  9/ 10 1018.1R
BUOY 41002       1343   82 82  210/ 17/ 21 1020.2F   4/ 6   2/120/ 9
BUOY 41010       1400   83 83  170/ 16/ 17 1019.4R   4/ 5   2/120/ 9
BUOY 41012       NOT AVBL
ST AUGUSTINE FL  1400   82     320/  4/  6 1019.8R
CAPERS NEARSHORE 1300   82     360/  6/  6   N/A
FRIPP NEARSHORE  NOT AVBL


$$



USA.gov is the U.S. government's official web portal to all federal, state and local government web resources and services.